Weather History for Hayward, CA

Change the Weather History Date:

Saturday, January 26, 2013

  Actual Average Record
Temperature  
Mean Temperature 52 °F 50 °F  
Max Temperature 57 °F 58 °F 69 °F (2011)
Min Temperature 46 °F 43 °F 38 °F (2009)
Degree Days  
Heating Degree Days 13    
Month to date heating degree days 459  
Since 1 July heating degree days 1325  
Cooling Degree Days 0    
Month to date cooling degree days 0  
Year to date cooling degree days 0  
Moisture  
Dew Point 45 °F    
Average Humidity 81    
Maximum Humidity 100    
Minimum Humidity 61    
Precipitation  
Precipitation 0.00 in - 0.40 in (2005)
Month to date precipitation 0.19  
Year to date precipitation 0.19  
Since 1 July precipitation 6.17  
Sea Level Pressure  
Sea Level Pressure 30.06 in    
Wind  
Wind Speed 9 mph (West)    
Max Wind Speed 21 mph    
Max Gust Speed 28 mph    
Visibility 8 miles    
Events      
T = Trace of Precipitation, MM = Missing Value Source: NWS Daily Summary

Daily Weather History Graph

Daily Weather History Graph

Search for Another Location

Airport:

Trip Planner

Search our weather history database for the weather conditions in past years. The results will help you decide how hot, cold, wet, or windy it might be!

Date:

Astronomy

Jan. 26, 2013 Rise Set
Actual Time 7:16 AM PST 5:26 PM PST
Civil Twilight 6:48 AM PST 5:54 PM PST
Nautical Twilight 6:17 AM PST 6:25 PM PST
Astronomical Twilight 5:46 AM PST 6:56 PM PST
Moon 5:25 PM PST (1/26) 6:38 AM PST (1/26)
Length of Visible Light 11h 05m
Length of Day
10h 09m
Full, 100% of the Moon is Illuminated
Jan 26
Full
Jan 26
Full
Feb 3
Last Quarter
Feb 9
New
Feb 17
First Quarter

Hourly Weather History & Observations

Time (PST) Temp. Dew Point Humidity Pressure Visibility Wind Dir Wind Speed Gust Speed Precip Events Conditions
12:54 AM 51.1 °F 48.0 °F 89% 30.07 in 7.0 mi Calm Calm - N/A   Clear
1:54 AM 48.9 °F 46.9 °F 93% 30.07 in 6.0 mi Calm Calm - N/A   Clear
2:54 AM 48.0 °F 46.0 °F 93% 30.07 in 7.0 mi Calm Calm - N/A   Clear
3:54 AM 48.9 °F 46.9 °F 93% 30.06 in 6.0 mi Calm Calm - N/A   Mostly Cloudy
4:54 AM 48.0 °F 46.0 °F 93% 30.05 in 5.0 mi Calm Calm - N/A   Partly Cloudy
5:49 AM 48.2 °F 46.4 °F 93% 30.03 in 5.0 mi SE 4.6 mph - N/A   Mostly Cloudy
5:54 AM 46.9 °F 46.0 °F 97% 30.06 in 5.0 mi ESE 4.6 mph - N/A   Overcast
6:03 AM 48.2 °F 46.4 °F 93% 30.03 in 5.0 mi SSE 3.5 mph - N/A   Overcast
6:16 AM 50.0 °F 48.2 °F 94% 30.03 in 6.0 mi Calm Calm - N/A   Overcast
6:38 AM 51.8 °F 48.2 °F 88% 30.03 in 5.0 mi Calm Calm - N/A   Overcast
6:54 AM 50.0 °F 48.9 °F 96% 30.06 in 4.0 mi Calm Calm - N/A   Overcast
7:05 AM 51.8 °F 48.2 °F 88% 30.02 in 4.0 mi Calm Calm - N/A   Overcast
7:15 AM 51.8 °F 48.2 °F 88% 30.03 in 4.0 mi Calm Calm - N/A   Overcast
7:54 AM 52.0 °F 48.9 °F 89% 30.06 in 9.0 mi West 4.6 mph - N/A   Overcast
8:51 AM 51.8 °F 48.2 °F 88% 30.03 in 10.0 mi West 10.4 mph - N/A   Overcast
8:54 AM 52.0 °F 48.0 °F 86% 30.06 in 10.0 mi West 9.2 mph - N/A   Overcast
9:05 AM 51.8 °F 46.4 °F 82% 30.03 in 10.0 mi West 6.9 mph - N/A   Mostly Cloudy
9:14 AM 51.8 °F 46.4 °F 82% 30.03 in 10.0 mi West 10.4 mph 16.1 mph N/A   Scattered Clouds
9:54 AM 54.0 °F 45.0 °F 72% 30.08 in 10.0 mi West 11.5 mph - N/A   Clear
10:54 AM 55.0 °F 44.1 °F 67% 30.08 in 10.0 mi West 11.5 mph - N/A   Clear
11:54 AM 55.9 °F 43.0 °F 62% 30.06 in 10.0 mi West 11.5 mph - N/A   Clear
12:54 PM 55.9 °F 45.0 °F 67% 30.05 in 10.0 mi West 12.7 mph 20.7 mph N/A   Clear
1:54 PM 55.9 °F 45.0 °F 67% 30.04 in 10.0 mi West 15.0 mph 23.0 mph N/A   Clear
2:54 PM 55.0 °F 43.0 °F 64% 30.05 in 10.0 mi West 18.4 mph 24.2 mph N/A   Clear
3:54 PM 54.0 °F 42.1 °F 64% 30.06 in 10.0 mi West 17.3 mph 24.2 mph N/A   Clear
4:54 PM 52.0 °F 42.1 °F 69% 30.05 in 10.0 mi West 15.0 mph - N/A   Clear
5:54 PM 51.1 °F 41.0 °F 68% 30.07 in 10.0 mi West 16.1 mph - N/A   Clear
6:54 PM 50.0 °F 41.0 °F 71% 30.08 in 10.0 mi West 10.4 mph - N/A   Clear
7:54 PM 50.0 °F 41.0 °F 71% 30.09 in 10.0 mi WNW 13.8 mph - N/A   Clear
8:54 PM 50.0 °F 41.0 °F 71% 30.10 in 10.0 mi WNW 16.1 mph - N/A   Clear
9:54 PM 48.9 °F 39.9 °F 71% 30.11 in 10.0 mi WNW 13.8 mph - N/A   Clear
10:54 PM 48.9 °F 41.0 °F 74% 30.11 in 10.0 mi WNW 12.7 mph - N/A   Clear
11:54 PM 48.0 °F 39.9 °F 74% 30.12 in 10.0 mi NW 8.1 mph - N/A   Clear